Location: Campestrin
(46.4667°N, 11.7167°E)
Time: 09:30:36
(UTC+00:00)

Cosmos 2263 Rocket - Pass Details

Date: 18 April 2021
Orbit: 824 x 848 km, 71.0° (Epoch: 06 May)

Event Time Altitude Azimuth Distance (km) Brightness Sun altitude
Exits shadow 23:24:28 38° 310° (NW) 1,246 3.2 -32.3°
Drops below altitude 10° 23:29:30 10° 14° (NNE) 2,438 5.4 -32.2°
Sets 23:32:08 0° 23° (NNE) 3,377 6.3 -32.2°
